TimeMDT,TemperatureF,Dew PointF,Humidity,Sea Level PressureIn,VisibilityMPH,Wind Direction,Wind SpeedMPH,Gust SpeedMPH,PrecipitationIn,Events,Conditions,WindDirDegrees,DateUTC
12:56 AM,41.0,38.8,92,29.96,10.0,East,6.9,-,N/A,,Overcast,100,2013-05-19 06:56:00
1:56 AM,41.0,38.8,92,29.96,10.0,SSW,3.5,-,0.01,,Overcast,210,2013-05-19 07:56:00
2:14 AM,39.2,39.2,100,30.05,10.0,SE,5.8,-,N/A,,Overcast,140,2013-05-19 08:14:00
2:56 AM,41.0,38.8,92,29.95,10.0,Calm,Calm,-,N/A,,Overcast,0,2013-05-19 08:56:00
3:56 AM,41.0,39.9,96,29.94,10.0,Calm,Calm,-,N/A,,Overcast,0,2013-05-19 09:56:00
4:56 AM,41.0,39.9,96,29.94,10.0,SSW,3.5,-,0.01,Rain,Light Rain,200,2013-05-19 10:56:00
5:16 AM,41.0,39.2,93,30.05,10.0,Calm,Calm,-,0.02,Rain,Light Rain,0,2013-05-19 11:16:00
5:26 AM,41.0,39.2,93,30.05,6.0,Calm,Calm,-,0.02,Rain,Light Rain,0,2013-05-19 11:26:00
5:48 AM,39.2,39.2,100,30.05,3.0,NNE,3.5,-,0.03,Rain,Rain,20,2013-05-19 11:48:00
5:56 AM,39.9,38.8,96,29.96,2.5,NNE,4.6,-,0.04,Rain,Light Rain,20,2013-05-19 11:56:00
6:02 AM,39.2,39.2,100,30.05,4.0,NNE,3.5,-,0.00,Rain,Light Rain,30,2013-05-19 12:02:00
6:14 AM,39.2,37.4,93,30.05,7.0,NW,8.1,-,0.01,Rain,Light Rain,320,2013-05-19 12:14:00
6:34 AM,39.2,37.4,93,30.06,10.0,NNW,3.5,-,0.01,,Overcast,330,2013-05-19 12:34:00
6:56 AM,39.9,37.9,93,29.97,10.0,Calm,Calm,-,0.01,,Overcast,0,2013-05-19 12:56:00
7:02 AM,39.2,37.4,93,30.06,10.0,Calm,Calm,-,N/A,,Overcast,0,2013-05-19 13:02:00
7:19 AM,39.2,39.2,100,30.06,10.0,NNW,5.8,-,0.00,Rain,Light Rain,330,2013-05-19 13:19:00
7:43 AM,39.2,37.4,93,30.07,4.0,NW,5.8,-,0.01,Rain,Light Rain,320,2013-05-19 13:43:00
7:56 AM,39.9,37.9,93,29.98,9.0,NW,3.5,-,0.01,,Overcast,320,2013-05-19 13:56:00
8:13 AM,39.2,39.2,100,30.07,5.0,WNW,9.2,-,0.00,Rain,Light Rain,300,2013-05-19 14:13:00
8:20 AM,39.2,39.2,100,30.07,5.0,WNW,9.2,-,0.00,Rain,Light Rain,300,2013-05-19 14:20:00
8:37 AM,39.2,39.2,100,30.07,4.0,NW,5.8,-,0.00,Rain,Light Rain,310,2013-05-19 14:37:00
8:56 AM,39.9,38.8,96,29.98,2.5,NW,3.5,-,0.00,,Overcast,320,2013-05-19 14:56:00
9:04 AM,39.2,39.2,100,30.07,6.0,NW,3.5,-,N/A,,Overcast,320,2013-05-19 15:04:00
9:18 AM,39.2,39.2,100,30.08,2.0,Variable,3.5,-,0.01,Rain,Light Rain,0,2013-05-19 15:18:00
9:30 AM,41.0,39.2,93,30.08,1.5,NW,4.6,-,0.02,Rain,Light Rain,310,2013-05-19 15:30:00
9:34 AM,41.0,39.2,93,30.08,2.0,NNW,5.8,-,0.02,Rain,Light Rain,330,2013-05-19 15:34:00
9:46 AM,41.0,39.2,93,30.08,2.0,NW,10.4,-,0.04,Rain,Light Rain,310,2013-05-19 15:46:00
9:56 AM,41.0,39.9,96,29.99,2.5,NW,11.5,-,0.04,Rain,Light Rain,310,2013-05-19 15:56:00
10:05 AM,41.0,39.2,93,30.08,4.0,NW,10.4,-,0.00,Rain,Light Rain,320,2013-05-19 16:05:00
10:20 AM,42.8,39.2,87,30.08,2.5,NW,8.1,-,0.01,Rain,Light Rain,310,2013-05-19 16:20:00
10:24 AM,42.8,39.2,87,30.08,3.0,NW,12.7,-,0.01,Rain,Light Rain,310,2013-05-19 16:24:00
10:56 AM,43.0,39.9,89,29.99,10.0,NW,10.4,-,0.01,,Overcast,310,2013-05-19 16:56:00
11:33 AM,42.8,39.2,87,30.09,10.0,NW,10.4,-,0.00,,Overcast,320,2013-05-19 17:33:00
12:19 PM,42.8,41.0,93,30.09,1.8,NW,16.1,-,0.00,Rain,Rain,320,2013-05-19 18:19:00
12:29 PM,42.8,41.0,93,30.09,2.0,NW,16.1,-,0.01,Rain,Light Rain,320,2013-05-19 18:29:00
12:36 PM,42.8,41.0,93,30.09,5.0,NW,15.0,-,0.01,Rain,Light Rain,310,2013-05-19 18:36:00
12:56 PM,41.9,39.9,93,30.00,10.0,WNW,15.0,-,0.01,Rain,Light Rain,300,2013-05-19 18:56:00
1:56 PM,43.9,41.0,90,30.00,10.0,NW,15.0,-,0.01,Rain,Light Rain,310,2013-05-19 19:56:00
2:10 PM,44.6,39.2,81,30.10,10.0,NW,16.1,-,0.00,Rain,Light Rain,310,2013-05-19 20:10:00
2:30 PM,44.6,39.2,81,30.10,10.0,WNW,12.7,-,0.00,Rain,Light Rain,300,2013-05-19 20:30:00
2:56 PM,45.0,39.9,82,29.99,10.0,NW,11.5,-,0.00,Rain,Light Rain,310,2013-05-19 20:56:00
3:56 PM,45.9,39.9,80,29.99,10.0,NW,13.8,-,0.00,Rain,Light Rain,310,2013-05-19 21:56:00
4:31 PM,44.6,42.8,93,30.10,1.0,NNE,8.1,-,0.02,Rain,Rain,30,2013-05-19 22:31:00
4:36 PM,44.6,42.8,93,30.09,1.5,Variable,3.5,-,0.02,Rain,Light Rain,0,2013-05-19 22:36:00
4:40 PM,44.6,42.8,93,30.09,3.0,NE,4.6,-,0.03,Rain,Light Rain,50,2013-05-19 22:40:00
4:56 PM,45.9,41.0,83,29.99,3.0,North,10.4,-,0.04,Rain,Rain,350,2013-05-19 22:56:00
5:03 PM,44.6,41.0,87,30.10,2.5,ENE,8.1,-,0.01,Rain,Rain,60,2013-05-19 23:03:00
5:24 PM,42.8,41.0,93,30.09,4.0,East,12.7,-,0.05,Rain,Rain,80,2013-05-19 23:24:00
5:37 PM,42.8,41.0,93,30.09,4.0,East,12.7,-,0.06,Rain,Light Rain,80,2013-05-19 23:37:00
5:56 PM,41.9,39.9,93,30.02,1.0,ENE,13.8,21.9,0.09,Rain,Heavy Rain,60,2013-05-19 23:56:00
6:01 PM,41.0,39.2,93,30.11,0.5,NNE,15.0,-,0.00,Fog-Rain,Heavy Rain,30,2013-05-20 00:01:00
6:11 PM,41.0,39.2,93,30.10,0.8,ENE,6.9,-,0.00,Rain,Light Rain,60,2013-05-20 00:11:00
6:13 PM,41.0,39.2,93,30.10,1.5,ENE,5.8,-,0.00,Rain,Light Rain,60,2013-05-20 00:13:00
6:15 PM,42.8,39.2,87,30.10,4.0,ENE,5.8,-,0.00,Rain,Light Rain,70,2013-05-20 00:15:00
6:26 PM,42.8,41.0,93,30.11,10.0,ENE,5.8,-,0.01,Rain,Light Rain,70,2013-05-20 00:26:00
6:56 PM,43.9,38.8,82,30.01,10.0,ESE,3.5,-,0.01,,Overcast,120,2013-05-20 00:56:00
7:56 PM,43.9,41.0,90,30.01,10.0,SW,5.8,-,N/A,,Overcast,230,2013-05-20 01:56:00
8:19 PM,42.8,41.0,93,30.11,4.0,Calm,Calm,-,0.01,Rain,Light Rain,0,2013-05-20 02:19:00
8:24 PM,42.8,41.0,93,30.11,6.0,Calm,Calm,-,0.01,Rain,Light Rain,0,2013-05-20 02:24:00
8:56 PM,43.0,41.9,96,30.02,10.0,Calm,Calm,-,0.02,,Overcast,0,2013-05-20 02:56:00
9:00 PM,42.8,42.8,100,30.12,10.0,Variable,3.5,-,0.00,Rain,Light Rain,0,2013-05-20 03:00:00
9:03 PM,42.8,42.8,100,30.12,10.0,Calm,Calm,-,0.00,Rain,Light Rain,0,2013-05-20 03:03:00
9:20 PM,44.6,42.8,93,30.12,10.0,Calm,Calm,-,0.00,,Overcast,0,2013-05-20 03:20:00
9:56 PM,43.9,43.0,97,30.03,10.0,NNW,3.5,-,0.01,,Overcast,330,2013-05-20 03:56:00
10:09 PM,44.6,42.8,93,30.13,10.0,NNW,6.9,-,0.00,,Mostly Cloudy,330,2013-05-20 04:09:00
10:56 PM,43.0,41.0,93,30.04,10.0,NNW,9.2,-,0.00,,Overcast,330,2013-05-20 04:56:00
11:56 PM,43.0,41.0,93,30.04,10.0,NNW,9.2,-,0.00,Rain,Light Rain,330,2013-05-20 05:56:00